Hourly Data Report for May 15, 2021

OTTAWA INTL A
ONTARIO
Current Station Operator: NAVCAN

45°19'00.000" N
75°40'00.000" W
114.90 m
6106001
71628
YOW

Download Data

Hourly Data (May 2021)
Hourly Data Report for May 15, 2021
TIME
LST
Temp Definition
°C
Dew Point Definition
°C
Rel Hum Definition
%
Precip. Amount Definition
mm

Wind Dir Definition
10's deg

Wind Spd Definition
km/h
Visibility Definition
km
Stn Press Definition
kPa
Hmdx Definition


Wind Chill Definition


Weather Definition


00:00 12.2 0.8 45   24 9 24.1 100.68     LegendNANA
01:00 9.7 1.0 55   27 12 24.1 100.67     Clear
02:00 12.3 1.1 46   29 15 24.1 100.69     LegendNANA
03:00 11.3 1.1 49   29 13 24.1 100.71     LegendNANA
04:00 8.3 1.3 62   24 14 24.1 100.74     Mostly Cloudy
05:00 8.0 1.4 63   24 14 24.1 100.76     LegendNANA
06:00 9.6 2.0 59   23 10 24.1 100.84     LegendNANA
07:00 12.5 2.5 50   24 8 24.1 100.86     Mostly Cloudy
08:00 16.5 1.5 36   27 14 24.1 100.89     LegendNANA
09:00 18.2 1.4 32   26 9 24.1 100.87     LegendNANA
10:00 20.4 1.3 28   24 17 24.1 100.86     Mostly Cloudy
11:00 21.5 0.1 24   21 18 24.1 100.82     LegendNANA
12:00 22.2 -2.5 19   18 10 24.1 100.78     LegendNANA
13:00 23.0 0.0 21   27 14 24.1 100.71     Mostly Cloudy
14:00 23.1 -1.2 20   20 13 24.1 100.67     LegendNANA
15:00 22.1 0.3 23   23 13 24.1 100.63     LegendNANA
16:00 22.9 1.7 24   24 23 24.1 100.60     Mostly Cloudy
17:00 21.1 3.7 31   31 31 24.1 100.64     LegendNANA
18:00 20.8 3.1 31   32 20 24.1 100.66     LegendNANA
19:00 19.1 2.6 33   23 7 24.1 100.70     Mostly Cloudy
20:00 17.1 3.7 40   26 15 24.1 100.75     LegendNANA
21:00 15.1 3.9 47   28 15 24.1 100.79     LegendNANA
22:00 14.9 5.4 53   30 12 24.1 100.78     Mostly Cloudy
23:00 14.0 6.5 60   30 8 24.1 100.79     LegendNANA

Notes on Data Quality.

Legend

  • E = Estimated
  • M = Missing
  • NA = Not Available*
  • [empty] = Indicates an unobserved value
Date modified: